ARIANE 5 R/B, 41593

Orbit data source: Space-Track

ARIANE 5 R/B, 41593 is space debris in HEO originally from a launch on Sat, 18 Jun 2016 UTC launched from the French Guiana (FRGUI). Debris objects in space refer to the collection of defunct objects orbiting the Earth. Examples of debris include non-operational satellites, rocket bodies, and fragments generated from explosions, collisions, or faulty payload assembly.

Loading next visibility...
Identifier
41593, 2016-039C
Orbit
HEO
Country
Flag of FRFR
Related business
Manufacturer
Airbus Safran
Mission
Spacecraft
Bus & Motor
ESC-A, Unknown motor
Mass
~5,000 kg wet, ~5,000 kg dry
Launch date (UTC)
2016-06-18 (10 years ago)
Launch vehicle
Unknown
Launch site
French Guiana (FRGUI)
Object type
Payload
Rocket body
Debris
Shape & HBR
Cyl + 1 Nozzle, 3.5 m
Radar Cross Section
41.627 m², Large (>1 m²)

Expand to show TLE details & history
Last TLE update: 11 hours ago

TLE from 11 hours ago
0 ARIANE 5 R/B
1 41593U 16039C   26035.88838646  .00002594  00000-0  82085-3 0  9994
2 41593   6.5025 353.8242 7142578 271.4296  15.5334  2.45179482 82423
Epoch: 2026-02-04T21:19Z
TLE epoch observation values (Epoch: 2026-02-04T21:19:16.590Z)
Latitude
-0.00007°
Longitude
-100.78186°
Altitude
4,837.824 km
Speed
7.342 km/s
True Right ascension
23h 36m 20s
True Declination
0° 00' 00"
Sunlit
Object was in daylight at epoch
Visualization orbit readout
Latitude
Unknown
Longitude
Unknown
Altitude
Unknown
Speed
Unknown
Apparent Right ascension
Unknown
Apparent Declination
Unknown
Sunlit
N/A
Visualization observer readout
Local Sidereal Time
10:08:25
Azimuth
Unknown
Elevation
Unknown
Doppler factor
Unknown
Orbital elements
Apogee altitude
33,456.135 km
Perigee altitude
261.665 km
Semi-major axis
23,237.037 km
Eccentricity
0.71426
Inclination
6.5025°
RAAN
353.8242°
Arg. of periapsis
271.4296°
True anomaly
89.28717°
Mean anomaly
15.5334°
Eccentric anomaly
43.9209°
Mean motion
0.61273 °/min
Orbital period
587.53 mins
BSTAR
0.00082085
Loading maneuver chart data...
Computing Atmospheric mass density...
Loading historical data...
Loading historical data...
Loading historical data...
Loading historical data...
Loading historical data...
Loading historical data...
Loading historical data...
Other satellites on launch #39 in the year 2016 (2016-06-18 UTC)

Documentation

Showing up to 5 results
|